Weather History for Livingston, MT

Change the Weather History Date:

Sunday, November 18, 2012

  Actual Average Record
Temperature  
Mean Temperature 44 °F 33 °F  
Max Temperature 54 °F 43 °F 71 °F (2008)
Min Temperature 34 °F 23 °F 0 °F (1978)
Degree Days  
Heating Degree Days 21 32  
Month to date heating degree days 515  
Since 1 July heating degree days 1543  
Moisture  
Dew Point 31 °F    
Average Humidity 61    
Maximum Humidity 76    
Minimum Humidity 41    
Precipitation  
Precipitation 0.05 in 0.02 in 0.40 in (1977)
Month to date precipitation 0.35  
Year to date precipitation 14.05  
Sea Level Pressure  
Sea Level Pressure 29.81 in    
Wind  
Wind Speed 13 mph (WSW)    
Max Wind Speed 31 mph    
Max Gust Speed 43 mph    
Visibility 10 miles    
Events Rain    
T = Trace of Precipitation, MM = Missing Value Source: NWS Daily Summary

Daily Weather History Graph

Daily Weather History Graph

Search for Another Location

Airport:

Trip Planner

Search our weather history database for the weather conditions in past years. The results will help you decide how hot, cold, wet, or windy it might be!

Date:

Astronomy

Nov. 18, 2012 Rise Set
Actual Time 7:26 AM MST 4:47 PM MST
Civil Twilight 6:53 AM MST 5:20 PM MST
Nautical Twilight 6:17 AM MST 5:56 PM MST
Astronomical Twilight 5:42 AM MST 6:31 PM MST
Moon 11:52 AM MST (11/18) 10:15 PM MST (11/18)
Length of Visible Light 10h 26m
Length of Day
9h 21m
Waxing Crescent, 31% of the Moon is Illuminated
Nov 18
Waxing Crescent
Nov 20
First Quarter
Nov 28
Full
Dec 6
Last Quarter
Dec 13
New

Hourly Weather History & Observations

Time (MST) Temp. Windchill Dew Point Humidity Pressure Visibility Wind Dir Wind Speed Gust Speed Precip Events Conditions
12:53 AM 46.9 °F - 32.0 °F 56% 29.71 in 10.0 mi WSW 10.4 mph - N/A   Clear
1:53 AM 46.9 °F - 32.0 °F 56% 29.70 in 10.0 mi WSW 6.9 mph - N/A   Partly Cloudy
2:53 AM 48.0 °F - 32.0 °F 54% 29.69 in 10.0 mi Variable 4.6 mph - N/A   Clear
3:53 AM 48.9 °F - 33.1 °F 54% 29.66 in 10.0 mi SSW 9.2 mph - N/A   Scattered Clouds
4:53 AM 48.9 °F - 34.0 °F 56% 29.65 in 10.0 mi SW 11.5 mph 21.9 mph N/A   Overcast
5:53 AM 48.9 °F - 34.0 °F 56% 29.63 in 10.0 mi SW 26.5 mph 35.7 mph N/A   Clear
6:53 AM 48.0 °F - 32.0 °F 54% 29.66 in 10.0 mi SW 19.6 mph - N/A   Clear
7:53 AM 50.0 °F - 32.0 °F 50% 29.66 in 10.0 mi SW 31.1 mph 41.4 mph N/A   Clear
8:53 AM 52.0 °F - 30.0 °F 43% 29.68 in 10.0 mi SSW 31.1 mph 42.6 mph N/A   Partly Cloudy
9:53 AM 51.1 °F - 30.0 °F 44% 29.76 in 10.0 mi WNW 16.1 mph 26.5 mph N/A   Overcast
10:53 AM 50.0 °F - 34.0 °F 54% 29.77 in 9.0 mi West 28.8 mph 39.1 mph 0.00 in Rain Light Rain
11:53 AM 54.0 °F - 30.9 °F 41% 29.79 in - West 19.6 mph - 0.00 in   Mostly Cloudy
12:53 PM 46.9 °F - 32.0 °F 56% 29.80 in - West 21.9 mph 32.2 mph 0.00 in   Overcast
1:37 PM 44.6 °F 36.6 °F 35.6 °F 71% 29.84 in - West 19.6 mph 27.6 mph 0.04 in Rain Light Rain
1:45 PM 44.6 °F 38.1 °F 35.6 °F 71% 29.84 in - West 13.8 mph 24.2 mph 0.05 in Rain Light Rain
1:53 PM 44.1 °F 37.4 °F 36.0 °F 73% 29.84 in - West 13.8 mph - 0.05 in   Overcast
2:53 PM 43.0 °F 35.4 °F 35.1 °F 74% 29.87 in - WSW 16.1 mph - N/A   Overcast
3:53 PM 41.0 °F 33.5 °F 33.1 °F 73% 29.88 in - SW 13.8 mph - 0.00 in   Scattered Clouds
4:53 PM 39.9 °F 35.8 °F 30.9 °F 70% 29.89 in - West 5.8 mph - N/A   Clear
5:53 PM 42.1 °F 34.5 °F 28.9 °F 60% 29.90 in - WNW 15.0 mph - N/A   Clear
6:53 PM 41.0 °F 36.4 °F 28.0 °F 60% 29.96 in - WNW 6.9 mph - N/A   Scattered Clouds
7:53 PM 36.0 °F - 28.0 °F 73% 29.98 in - Calm Calm - N/A   Clear
8:53 PM 35.1 °F 31.0 °F 28.0 °F 76% 29.99 in - East 4.6 mph - N/A   Scattered Clouds
9:53 PM 34.0 °F - 27.0 °F 75% 30.01 in - Calm Calm - N/A   Clear
10:53 PM 36.0 °F - 27.0 °F 70% 30.01 in - Calm Calm - N/A   Clear
11:53 PM 39.0 °F 33.4 °F 24.1 °F 55% 30.00 in - SW 8.1 mph - N/A   Clear